一网星座-0383星 (ONEWEB-0383 )

导读 | 星芒AI

ONEWE-0383 是 OneWeb 卫星星座计划中的一颗低轨通信卫星,旨在为全球提供高速互联网服务。该卫星由阿丽亚娜集团制造,搭载先进通信载荷,支持宽带数据传输。作为 OneWeb 扩展其全球网络的一部分,该卫星于2024年发射,运行在约1200公里高度的近极地轨道,与其他卫星协同工作,提升偏远和农村地区的网络覆盖。OneWeb 项目由多个国际合作伙伴支持,致力于实现全球无缝连接。

基本信息
目录编号:
49309
目录名称:
ONEWEB-0383
国际标识:
2021-090AG
轨道中心:
EARTH
卫星名称:
一网星座-0383星
卫星全名:
一网星座-0383星 (ONEWEB-0383 )
卫星状态:
在轨 (已飞行1477 天)
发射日期:
2021-10-14 UTC
国别 :
英国 (GB)
星等 :
--
轨道信息
数据来源 国际轨道数据
星历时间: 2025-10-29T21:07:29+0800
16小时前
查看轨道信息
半长轴: 7583.923km
偏心率: 0.0001721
轨道倾角: 87.902°
近地点辐角 101.805°
升交点赤经 335.637°
平近点角 258.327°
近地点: 1204.482km
远地点: 1207.094km
周期: 109.547分钟
每日圈数: 13.145041
详细信息
平衡模式:
三轴稳定
覆盖范围:
全球
运营商:
一网卫星公司
运营商所在国:
英国
制造商(研发单位):
一网卫星公司
制造商所在国:
英国
使用方式:
暂无
卫星简介
OneWeb卫星网络由648颗重约125公斤的微型卫星组成,运行在1200公里的轨道上。 每颗卫星都能够提供至少每秒8千兆位的吞吐量,以使用其高吞吐量的Ku频段有效载荷为家庭和移动平台提供互联网接入。该卫星仍在工作。
2D轨道图
3D轨道图
轨道高度分析图
轨道倾角分析图
轨道综合分析图
查看轨道综合分析图